Historique des stations

Station météo de Saint-Michel-en-Brenne

Altitude de la station : 93 m







Données météorologiques pour le 21/06/2021
Date
Heure
Températures Humidité Point de rosée Vitesse
du vent
Direction Rafales Windchill Pression Pluviométrie
Cumul
Date
Heure
Températures Humidité Point de rosée Vitesse
du vent
Direction Rafales Windchill Pression Pluviométrie
Cumul
21/06/2021 08:4516.4 °C87 %14.4 °C3 km/hENE6 km/h16.7 1010 hPa-
21/06/2021 08:3016.1 °C87 %13.9 °C5 km/hNE5 km/h16.1 1010 hPa-
21/06/2021 08:1515.7 °C87 %13.3 °C3 km/hENE5 km/h15.6 1009 hPa-
21/06/2021 08:0015.3 °C87 %13.3 °C---15.6 1009 hPa-
21/06/2021 07:4515.3 °C87 %13.3 °C---15.6 1009 hPa-
21/06/2021 07:3015.2 °C87 %13.3 °C---15.0 1009 hPa-
21/06/2021 07:1514.9 °C87 %12.8 °C---15.0 1009 hPa-
21/06/2021 07:0014.9 °C87 %12.8 °C---15.0 1009 hPa-
21/06/2021 06:4514.6 °C87 %12.8 °C-SSE2 km/h14.4 1009 hPa-
21/06/2021 06:3014.6 °C87 %12.8 °C-SSE2 km/h14.4 1009 hPa-
21/06/2021 06:1514.7 °C87 %12.8 °C2 km/hSSE3 km/h15.0 1009 hPa-
21/06/2021 06:0014.8 °C87 %12.8 °C2 km/hSSE3 km/h15.0 1009 hPa-
21/06/2021 05:4514.7 °C87 %12.8 °C-SE5 km/h15.0 1009 hPa-
21/06/2021 05:2914.6 °C87 %12.8 °C-E6 km/h14.4 1009 hPa-
21/06/2021 05:1514.9 °C86 %12.8 °C2 km/hE10 km/h15.0 1009 hPa-
21/06/2021 04:5915.0 °C87 %12.8 °C-S6 km/h15.0 1010 hPa-
21/06/2021 04:4414.9 °C87 %12.8 °C2 km/hSSE8 km/h15.0 1010 hPa-
21/06/2021 04:2914.9 °C86 %12.8 °C2 km/hS10 km/h15.0 1010 hPa-
21/06/2021 04:1415.0 °C86 %12.8 °C3 km/hS8 km/h15.0 1010 hPa-
21/06/2021 03:5915.2 °C86 %12.8 °C3 km/hS8 km/h15.0 1009 hPa-
21/06/2021 03:4415.1 °C86 %12.8 °C2 km/hS5 km/h15.0 1009 hPa-
21/06/2021 03:2914.8 °C86 %12.8 °C2 km/hS3 km/h15.0 1009 hPa-
21/06/2021 03:1414.9 °C86 %12.8 °C-S2 km/h15.0 1010 hPa-
21/06/2021 02:5915.2 °C86 %12.8 °C-S5 km/h15.0 1010 hPa-
21/06/2021 02:4415.1 °C85 %12.8 °C2 km/hS5 km/h15.0 1010 hPa-
21/06/2021 02:2915.3 °C85 %12.8 °C-S5 km/h15.6 1009 hPa-
21/06/2021 02:1415.4 °C85 %12.8 °C3 km/hS5 km/h15.6 1009 hPa-
21/06/2021 01:5915.7 °C85 %13.3 °C-S8 km/h15.6 1009 hPa-
21/06/2021 01:4415.8 °C85 %13.3 °C3 km/hSSO6 km/h16.1 1009 hPa-
21/06/2021 01:2916.0 °C85 %13.3 °C3 km/hS8 km/h16.1 1009 hPa-
21/06/2021 01:1416.2 °C85 %13.9 °C3 km/hS8 km/h16.1 1009 hPa-
21/06/2021 00:5916.4 °C85 %13.9 °C3 km/hSSO6 km/h16.7 1009 hPa-
21/06/2021 00:4416.6 °C85 %13.9 °C-SSE8 km/h16.7 1009 hPa-
21/06/2021 00:2916.7 °C85 %14.4 °C3 km/hS10 km/h16.7 1009 hPa-
21/06/2021 00:1416.7 °C85 %14.4 °C6 km/hS14 km/h16.7 1009 hPa-


Minima :

Température : 14.6 °C
Humidité : 85 %
Point de rosée : 12.8 °C
Vent moyen : 2 km/h
Windchill : 14.4
Pression atm. : 1009 hPa
Maxima :

Température : 16.7 °C
Humidité : 87 %
Point de rosée : 14.4 °C
Vent moyen : 6 km/h
Windchill : 16.7
Pression atm. : 1010 hPa
Rafales max : 14 km/h
Cumul de pluie sur 24H : 0 mm

Saint-Michel-en-Brenne est une commune du département Indre (36).
La station météorologique du réseau de l'association la plus proche de Saint-Michel-en-Brenne est celle de Villegouin



Icône Facebook Association Météo Centre Icône Twitter Association Météo Centre Icône Chaîne Youtube Association Météo Centre Icône contact Association Météo Centre Icône Insta Association Météo Centre